sat.trackr.live / text

‹ back to catalog

STARLINK-35295

NORAD 66070 · 2025-235N

PAYLOAD ACTIVE UNKNOWN

§ Identity

Operator
Country
US
Launch date
2025-10-19
Launch site
AFETR
Launch vehicle
Mass (kg)
RCS (m²)

Purposes: comms

External: N2YO · Heavens-Above · Gunter

§ Orbital elements

Epoch: 2026-05-25T00:28:51.673728Z

Period
94.10 min
Inclination
53.1577°
Eccentricity
0.0002682
Mean motion
15.30257062 rev/d
Perigee alt
473.2 km
Apogee alt
476.9 km
Semi-major
6,853.2 km
B*
1.1989e-3
RAAN
251.0274°
Arg perigee
80.7246°
Mean anomaly
279.4058°
Rev number
3,460

§ Raw data

STARLINK-352951 66070U 25235N   26145.02004252  .00035382  00000+0  11989-2 0  99992 66070  53.1577 251.0274 0002682  80.7246 279.4058 15.30257062 34604

JSON: /api/v1/satellites/66070 · /tle

For live sub-satellite position, see the globe view (requires WebGL).

§ Visibility from observer

Set your observer location to see the next 7 days of passes ≥ 10°. The values pass through the URL so the page stays shareable.

No JS? Fill the form by hand. The geolocation button needs JavaScript.